Location: Wildlife_Club
(35.6000°N, 81.4330°W)
Time: 15:20:48
(UTC-04:00)

Amateur Radio Satellites - All Passes

Search period start: 28 June 2017 14:50
Search period end: 29 June 2017 14:50
Location: Wildlife_Club, 35.6000°N, 81.4330°W

Satellite Date Start Highest point End Downlink Frequencies (MHz)
Time Altitude Azimuth
Tancredo 1 28 Jun 14:50:59 14:54:01 74° 222° (SW) 14:57:02 437.200
Gurwin Techsat 1B 28 Jun 15:04:34 15:09:39 46° 261° (W) 15:14:45 435.225
AO-7 28 Jun 15:10:06 15:17:38 40° 63° (ENE) 15:25:13 .
50 SAT 28 Jun 15:17:06 15:19:06 15° 291° (WNW) 15:21:06 437.505
SO-50 28 Jun 15:17:56 15:21:30 22° 310° (NW) 15:25:01 436.795
JUGNU 28 Jun 15:19:12 15:22:41 16° 186° (S) 15:26:11 437.505
SRMSAT 28 Jun 15:22:25 15:25:31 14° 171° (S) 15:28:36 437.500
Oscar 19 28 Jun 15:26:26 15:29:43 17° 266° (W) 15:33:02 437.125/150
ITUPSAT 1 28 Jun 15:45:58 15:49:51 24° 96° (E) 15:53:43 437.325
ISS 28 Jun 15:49:08 15:52:14 38° 227° (SW) 15:55:19 437.550
BEESAT 28 Jun 15:53:27 15:57:39 30° 97° (E) 16:01:48 436.000
ITAMSAT 1 28 Jun 16:08:43 16:13:55 89° 77° (ENE) 16:19:10 435.822/435.867
MOZHAYETS 4 28 Jun 16:31:57 16:36:25 52° 100° (E) 16:40:50
AO-7 28 Jun 17:02:32 17:10:14 42° 260° (W) 17:18:03 .
SRMSAT 28 Jun 17:10:10 17:13:56 17° 181° (S) 17:17:40 437.500
CUBESAT XI-V 28 Jun 17:22:04 17:26:09 31° 97° (E) 17:30:15 437.345
ITUPSAT 1 28 Jun 17:23:29 17:27:37 30° 290° (WNW) 17:31:43 437.325
BEESAT 28 Jun 17:31:26 17:35:14 24° 292° (WNW) 17:39:02 436.000
CUTE-I 28 Jun 17:39:05 17:41:50 14° 63° (ENE) 17:44:36 437.470
KKS-1 28 Jun 17:41:26 17:45:28 32° 98° (E) 17:49:29 437.445
DOVE 4 28 Jun 17:43:14 17:46:51 29° 71° (ENE) 17:50:34 437.250
STARS 28 Jun 18:01:59 18:05:27 22° 96° (E) 18:08:54 437.465
XW-2F 28 Jun 18:02:24 18:05:03 18° 70° (ENE) 18:07:42 145.980 - 146.000
XW-2D 28 Jun 18:08:22 18:11:27 23° 71° (ENE) 18:14:32 145.860 - 145.880
MOZHAYETS 4 28 Jun 18:10:52 18:13:04 13° 295° (WNW) 18:15:15
XW-2B 28 Jun 18:17:11 18:20:30 29° 72° (ENE) 18:23:50 145.730 - 145.750
LilacSat-2 28 Jun 18:20:23 18:23:55 34° 73° (ENE) 18:27:26 437.200
XW-2C 28 Jun 18:32:26 18:36:07 47° 75° (ENE) 18:39:49 145.795 - 145.815
KAITUO 1B 28 Jun 18:38:05 18:41:39 41° 74° (ENE) 18:45:13 145.475/437.950
CUTE 1.7 + AOD 2 28 Jun 18:49:50 18:50:53 11° 65° (ENE) 18:51:54 437.475
SRMSAT 28 Jun 18:59:42 19:02:20 13° 191° (SSW) 19:04:57 437.500
CUBESAT XI-V 28 Jun 18:59:50 19:03:18 21° 291° (WNW) 19:06:46 437.345
NUDT-PHONESAT 28 Jun 19:08:33 19:12:18 74° 259° (W) 19:16:03 437.300
AO-85 28 Jun 19:14:00 19:16:03 13° 110° (ESE) 19:18:03 145.980
CUTE-I 28 Jun 19:15:59 19:21:15 66° 258° (WSW) 19:26:36 437.470
KKS-1 28 Jun 19:18:30 19:21:46 20° 292° (WNW) 19:25:02 437.445
RS-15 28 Jun 19:19:13 19:27:31 22° 100° (E) 19:35:56 29.354- 29.394
HO-68 28 Jun 19:20:17 19:27:02 45° 67° (ENE) 19:33:46 435.675
DOVE 4 28 Jun 19:21:41 19:24:35 18° 267° (W) 19:27:33 437.250
CUBEBUG 2 28 Jun 19:34:22 19:37:45 20° 68° (ENE) 19:41:11 437.445
XW-2F 28 Jun 19:35:48 19:38:59 25° 264° (W) 19:42:10 145.980 - 146.000
STARS 28 Jun 19:37:56 19:41:44 28° 290° (WNW) 19:45:31 437.465
XW-2D 28 Jun 19:42:45 19:45:32 19° 265° (W) 19:48:20 145.860 - 145.880
XW-2B 28 Jun 19:52:22 19:54:42 15° 266° (W) 19:57:02 145.730 - 145.750
LilacSat-2 28 Jun 19:56:23 19:58:16 13° 267° (W) 20:00:09 437.200
SEEDS 28 Jun 19:57:57 20:01:55 43° 74° (ENE) 20:05:54 437.485
UWE-3 28 Jun 20:00:25 20:04:01 23° 69° (ENE) 20:07:40 435.000/436.395/437.385
KAITUO 1B 28 Jun 20:15:07 20:15:49 10° 268° (W) 20:16:30 145.475/437.950
CUTE 1.7 + AOD 2 28 Jun 20:22:00 20:26:11 56° 260° (W) 20:30:21 437.475
BEESAT 3 28 Jun 20:22:14 20:26:03 48° 115° (ESE) 20:29:55 437.485
PCSat 28 Jun 20:24:04 20:27:59 20° 51° (NE) 20:31:51 145.827
XW-2A 28 Jun 20:37:10 20:40:25 40° 261° (W) 20:43:42 145.665 - 145.685
AAUSAT CUBESAT 2 28 Jun 20:38:11 20:42:13 58° 76° (ENE) 20:46:16 437.432
AO-73 28 Jun 20:45:39 20:49:46 35° 72° (ENE) 20:53:56 145.935
AO-85 28 Jun 20:52:11 20:56:04 41° 303° (WNW) 20:59:50 145.980
YUBILEINY 28 Jun 20:55:28 21:00:53 18° 79° (E) 21:06:18 435.215
STRAND 1 28 Jun 20:57:01 21:02:12 89° 103° (ESE) 21:07:20 437.568
NO-84 28 Jun 21:07:44 21:11:27 88° 319° (NW) 21:15:31 435.350 FM
Oscar 11 28 Jun 21:08:31 21:12:41 47° 74° (ENE) 21:16:51 .
HO-68 28 Jun 21:08:37 21:14:48 31° 263° (W) 21:21:02 435.675
CUBEBUG 2 28 Jun 21:09:52 21:14:04 35° 263° (W) 21:18:23 437.445
ZACube-1 28 Jun 21:22:21 21:26:55 79° 260° (W) 21:31:31 437.345
RS-15 28 Jun 21:26:14 21:38:22 87° 298° (WNW) 21:50:50 29.354- 29.394
BEESAT 2 28 Jun 21:29:12 21:33:10 84° 301° (WNW) 21:37:12 435.950
DELFI C3 28 Jun 21:33:33 21:36:26 20° 70° (ENE) 21:39:21 145.870
SEEDS 28 Jun 21:35:56 21:37:47 13° 268° (W) 21:39:37 437.485
UWE-3 28 Jun 21:36:13 21:40:15 30° 264° (W) 21:44:22 435.000/436.395/437.385
EO-88 28 Jun 21:40:07 21:42:14 15° 69° (ENE) 21:44:19 145.990 - 145.960
O/OREOS (USA 219) 28 Jun 21:43:09 21:47:42 79° 291° (WNW) 21:52:14 437.305
BEESAT 3 28 Jun 22:01:43 22:03:53 14° 312° (NW) 22:06:05 437.485
PCSat 28 Jun 22:06:24 22:11:42 55° 248° (WSW) 22:16:58 145.827
SO-50 28 Jun 22:11:24 22:14:19 17° 48° (NE) 22:17:15 436.795
FO-29 28 Jun 22:16:22 22:23:16 32° 94° (E) 22:29:53 435.910
PRISM 28 Jun 22:20:37 22:22:27 13° 93° (E) 22:24:15 437.425
AO-73 28 Jun 22:22:51 22:26:03 19° 266° (W) 22:29:17 145.935
UNISAT 6 28 Jun 22:39:34 22:43:20 25° 95° (E) 22:47:01 437.425
Oscar 11 28 Jun 22:47:13 22:49:01 12° 268° (W) 22:50:50 .
NO-84 28 Jun 22:47:24 22:49:37 14° 332° (NNW) 22:51:56 435.350 FM
YUBILEINY 28 Jun 22:47:44 22:56:32 80° 277° (W) 23:05:25 435.215
DELFI C3 28 Jun 23:07:54 23:11:03 23° 264° (W) 23:14:13 145.870
EO-88 28 Jun 23:12:25 23:15:37 28° 263° (W) 23:18:50 145.990 - 145.960
M-CUBED/EXP-1 PRIME 28 Jun 23:13:11 23:17:06 82° 108° (ESE) 23:21:18 437.505
LO-87 28 Jun 23:22:46 23:26:02 35° 74° (ENE) 23:29:19 145.935 - 145.965
TIGRISAT 28 Jun 23:32:13 23:36:52 88° 279° (W) 23:41:21 435.000
RS-15 28 Jun 23:42:46 23:52:49 28° 323° (NW) 00:02:59 29.354- 29.394
VELOX 1 28 Jun 23:50:25 23:50:50 10° 64° (ENE) 23:51:14 145.980
SO-50 28 Jun 23:50:39 23:55:03 52° 244° (WSW) 23:59:29 436.795
PRISM 28 Jun 23:53:59 23:57:52 42° 287° (WNW) 00:01:45 437.425
ESTCUBE 1 29 Jun 00:00:41 00:05:08 66° 75° (ENE) 00:09:35 437.505/2401.250
FO-29 29 Jun 00:00:51 00:08:20 49° 290° (WNW) 00:15:34 435.910
AIST 2D 29 Jun 00:11:40 00:14:42 27° 97° (E) 00:17:43 435.315
UNISAT 6 29 Jun 00:16:05 00:19:56 27° 290° (WNW) 00:23:42 437.425
POLYITAN 1 29 Jun 00:20:01 00:22:47 17° 94° (E) 00:25:32 437.675
QB50P2 29 Jun 00:30:27 00:33:58 25° 96° (E) 00:37:28 145.880/145.840
YUBILEINY 29 Jun 00:50:46 00:54:46 14° 297° (WNW) 00:58:48 435.215
EO-79 29 Jun 00:53:09 00:57:13 42° 99° (E) 01:01:14 145.935-145.965
LO-87 29 Jun 00:58:48 00:59:35 11° 268° (W) 01:00:22 145.935 - 145.965
DUCHIFAT 1 29 Jun 01:02:34 01:06:38 43° 99° (E) 01:10:38 145.980
NANOSAT C BR1 29 Jun 01:13:04 01:17:18 67° 101° (E) 01:21:30 145.865
SPROUT 29 Jun 01:14:46 01:19:01 72° 258° (WSW) 01:23:18 437.525
VELOX 1 29 Jun 01:22:20 01:26:40 65° 258° (WSW) 01:31:02 145.980
DX 1 29 Jun 01:29:49 01:33:56 45° 73° (ENE) 01:38:03 434.975-435.025
UKube-1 29 Jun 01:39:16 01:43:14 37° 72° (ENE) 01:47:12 .
50 SAT 29 Jun 01:44:23 01:47:44 69° 259° (W) 01:51:06 437.505
AIST 2D 29 Jun 01:45:54 01:47:37 13° 291° (WNW) 01:49:19 435.315
POLYITAN 1 29 Jun 01:54:46 01:58:37 34° 288° (WNW) 02:02:26 437.675
BUGSAT 1 29 Jun 01:57:18 02:01:28 53° 100° (E) 02:05:34 437.445
Oscar 19 29 Jun 02:00:31 02:04:22 21° 95° (E) 02:08:11 437.125/150
RS-15 29 Jun 02:05:40 02:11:41 14° 359° (N) 02:17:38 29.354- 29.394
QB50P2 29 Jun 02:06:14 02:09:37 23° 290° (WNW) 02:12:59 145.880/145.840
EO-79 29 Jun 02:30:17 02:32:35 14° 293° (WNW) 02:34:51 145.935-145.965
DUCHIFAT 1 29 Jun 02:39:42 02:41:52 14° 294° (WNW) 02:44:03 145.980
ITUPSAT 1 29 Jun 02:50:05 02:53:42 22° 67° (ENE) 02:57:19 437.325
BEESAT 29 Jun 02:57:05 03:01:01 26° 69° (ENE) 03:04:57 436.000
DX 1 29 Jun 03:08:18 03:10:18 13° 267° (W) 03:12:19 434.975-435.025
UKube-1 29 Jun 03:16:48 03:19:21 15° 266° (W) 03:21:54 .
AO-7 29 Jun 03:17:58 03:21:16 13° 91° (E) 03:24:32 .
Gurwin Techsat 1B 29 Jun 03:23:27 03:28:49 88° 103° (ESE) 03:34:08 435.225
MOZHAYETS 4 29 Jun 03:30:44 03:34:56 35° 72° (ENE) 03:39:09
BUGSAT 1 29 Jun 03:34:54 03:36:18 11° 295° (WNW) 03:37:41 437.445
Oscar 19 29 Jun 03:39:02 03:43:45 38° 289° (WNW) 03:48:28 437.125/150
NO-84 29 Jun 03:44:14 03:47:40 22° 34° (NE) 03:51:04 435.350 FM
RS-15 29 Jun 04:20:53 04:30:40 27° 35° (NE) 04:40:04 29.354- 29.394
CUBESAT XI-V 29 Jun 04:22:46 04:26:22 23° 69° (ENE) 04:29:58 437.345
ITAMSAT 1 29 Jun 04:24:47 04:29:41 40° 99° (E) 04:34:33 435.822/435.867
ITUPSAT 1 29 Jun 04:26:54 04:31:15 35° 262° (W) 04:35:40 437.325
BEESAT 29 Jun 04:34:32 04:38:38 28° 263° (W) 04:42:46 436.000
KKS-1 29 Jun 04:37:03 04:40:23 21° 68° (ENE) 04:43:44 437.445
BEESAT 3 29 Jun 04:43:04 04:44:59 13° 48° (NE) 04:46:53 437.485
STARS 29 Jun 04:56:46 04:59:06 14° 66° (ENE) 05:01:27 437.465
AO-7 29 Jun 05:06:37 05:15:03 80° 106° (ESE) 05:23:25 .
Gurwin Techsat 1B 29 Jun 05:07:02 05:07:56 10° 299° (WNW) 05:08:50 435.225
MOZHAYETS 4 29 Jun 05:08:51 05:12:08 19° 266° (W) 05:15:26
NO-84 29 Jun 05:21:15 05:25:32 55° 231° (SW) 05:29:41 435.350 FM
AO-85 29 Jun 05:25:06 05:29:15 62° 60° (ENE) 05:33:40 145.980
DOVE 4 29 Jun 05:45:33 05:47:49 13° 92° (E) 05:50:07 437.250
BEESAT 2 29 Jun 05:50:02 05:53:17 23° 52° (NE) 05:56:30 435.950
CUBESAT XI-V 29 Jun 05:59:30 06:03:33 30° 263° (W) 06:07:36 437.345
ITAMSAT 1 29 Jun 06:04:53 06:08:51 22° 294° (WNW) 06:12:47 435.822/435.867
KKS-1 29 Jun 06:12:52 06:16:43 29° 263° (W) 06:20:37 437.445
BEESAT 3 29 Jun 06:18:58 06:22:52 53° 244° (WSW) 06:26:42 437.485
O/OREOS (USA 219) 29 Jun 06:19:43 06:20:45 11° 56° (NE) 06:21:46 437.305
STARS 29 Jun 06:30:49 06:35:00 45° 260° (W) 06:39:14 437.465
RS-15 29 Jun 06:33:04 06:45:14 84° 60° (ENE) 06:56:43 29.354- 29.394
STRAND 1 29 Jun 06:36:17 06:36:29 10° 61° (ENE) 06:36:41 437.568
NUDT-PHONESAT 29 Jun 06:43:39 06:45:09 12° 93° (E) 06:46:37 437.300
ISS 29 Jun 06:50:53 06:53:36 25° 131° (SE) 06:56:20 437.550
AO-7 29 Jun 07:01:01 07:06:51 22° 304° (NW) 07:12:42 .
AO-85 29 Jun 07:08:29 07:09:12 10° 251° (WSW) 07:09:56 145.980
XW-2F 29 Jun 07:10:13 07:13:41 36° 98° (E) 07:17:08 145.980 - 146.000
XW-2D 29 Jun 07:16:58 07:20:37 50° 99° (E) 07:24:15 145.860 - 145.880
Tancredo 1 29 Jun 07:19:05 07:22:03 55° 320° (NW) 07:25:01 437.200
DOVE 4 29 Jun 07:20:45 07:25:46 65° 285° (WNW) 07:30:57 437.250
XW-2B 29 Jun 07:26:02 07:29:46 65° 101° (E) 07:33:28 145.730 - 145.750
BEESAT 2 29 Jun 07:27:34 07:30:59 27° 248° (WSW) 07:34:23 435.950
LilacSat-2 29 Jun 07:30:11 07:33:58 82° 102° (ESE) 07:37:43 437.200
CUTE-I 29 Jun 07:35:57 07:41:18 64° 102° (ESE) 07:46:37 437.470
XW-2C 29 Jun 07:41:44 07:45:29 73° 283° (WNW) 07:49:12 145.795 - 145.815
KAITUO 1B 29 Jun 07:45:42 07:49:24 87° 279° (W) 07:53:04 145.475/437.950
O/OREOS (USA 219) 29 Jun 07:56:10 08:00:36 67° 252° (WSW) 08:05:02 437.305
XW-2A 29 Jun 08:03:04 08:04:43 13° 94° (E) 08:06:21 145.665 - 145.685
STRAND 1 29 Jun 08:09:43 08:14:51 87° 251° (WSW) 08:20:02 437.568
CUTE 1.7 + AOD 2 29 Jun 08:09:59 08:13:39 29° 97° (E) 08:17:17 437.475
NUDT-PHONESAT 29 Jun 08:15:48 08:19:08 33° 287° (WNW) 08:22:27 437.300
AAUSAT CUBESAT 2 29 Jun 08:25:29 08:26:38 11° 92° (E) 08:27:47 437.432
ISS 29 Jun 08:27:09 08:30:00 27° 326° (NW) 08:32:52 437.550
HO-68 29 Jun 08:38:15 08:45:22 62° 103° (ESE) 08:52:25 435.675
XW-2F 29 Jun 08:45:57 08:47:27 12° 292° (WNW) 08:48:55 145.980 - 146.000
RS-15 29 Jun 08:47:51 08:56:04 23° 260° (W) 09:04:04 29.354- 29.394
Oscar 11 29 Jun 09:01:16 09:02:14 11° 91° (E) 09:03:11 .
YUBILEINY 29 Jun 09:01:58 09:10:21 45° 77° (ENE) 09:18:37 435.215
CUBEBUG 2 29 Jun 09:03:15 09:07:53 63° 100° (E) 09:12:21 437.445
ZACube-1 29 Jun 09:14:24 09:18:00 25° 95° (E) 09:21:31 437.345
CUTE-I 29 Jun 09:17:48 09:20:45 15° 297° (WNW) 09:23:40 437.470
SEEDS 29 Jun 09:19:49 09:23:56 61° 284° (WNW) 09:28:02 437.485
UWE-3 29 Jun 09:28:15 09:32:47 70° 101° (E) 09:37:08 435.000/436.395/437.385
XW-2A 29 Jun 09:34:38 09:37:27 25° 288° (WNW) 09:40:17 145.665 - 145.685
UNISAT 6 29 Jun 09:36:00 09:38:55 17° 66° (ENE) 09:41:50 437.425
CUTE 1.7 + AOD 2 29 Jun 09:46:15 09:49:15 19° 291° (WNW) 09:52:15 437.475
M-CUBED/EXP-1 PRIME 29 Jun 09:57:08 10:00:20 54° 71° (ENE) 10:03:31 437.505
AAUSAT CUBESAT 2 29 Jun 09:58:21 10:02:18 47° 286° (WNW) 10:06:15 437.432
FO-29 29 Jun 10:08:55 10:14:54 60° 72° (ENE) 10:21:45 435.910
AO-73 29 Jun 10:12:19 10:16:42 74° 283° (WNW) 10:20:56 145.935
HO-68 29 Jun 10:27:08 10:32:29 23° 299° (WNW) 10:37:50 435.675
TIGRISAT 29 Jun 10:27:16 10:31:45 55° 74° (ENE) 10:36:21 435.000
Oscar 11 29 Jun 10:34:27 10:38:38 53° 285° (WNW) 10:42:48 .
PRISM 29 Jun 10:39:41 10:43:44 87° 77° (ENE) 10:47:48 437.425
CUBEBUG 2 29 Jun 10:42:19 10:43:51 12° 296° (WNW) 10:45:23 437.445
EO-88 29 Jun 10:43:51 10:46:57 26° 97° (E) 10:50:03 145.990 - 145.960
DELFI C3 29 Jun 10:46:46 10:50:35 48° 99° (E) 10:54:25 145.870
ZACube-1 29 Jun 10:50:37 10:54:09 24° 290° (WNW) 10:57:37 437.345
YUBILEINY 29 Jun 10:59:10 11:06:49 35° 275° (W) 11:14:28 435.215
PCSat 29 Jun 11:02:23 11:06:59 29° 108° (ESE) 11:11:37 145.827
UNISAT 6 29 Jun 11:10:49 11:15:12 43° 261° (W) 11:19:41 437.425
QB50P2 29 Jun 11:21:23 11:23:30 14° 66° (ENE) 11:25:36 145.880/145.840
JUGNU 29 Jun 11:29:07 11:31:02 12° 167° (SSE) 11:32:57 437.505
EO-79 29 Jun 11:43:01 11:46:17 22° 69° (ENE) 11:49:33 145.935-145.965
DUCHIFAT 1 29 Jun 11:51:47 11:55:03 22° 69° (ENE) 11:58:19 145.980
FO-29 29 Jun 11:56:16 12:00:32 19° 271° (W) 12:05:10 435.910
ESTCUBE 1 29 Jun 11:57:07 12:00:05 17° 94° (E) 12:03:01 437.505/2401.250
NANOSAT C BR1 29 Jun 12:02:06 12:05:53 32° 72° (ENE) 12:09:42 145.865
TIGRISAT 29 Jun 12:06:51 12:08:44 12° 269° (W) 12:10:38 435.000
AIST 2D 29 Jun 12:15:18 12:18:47 58° 259° (W) 12:22:18 435.315
EO-88 29 Jun 12:18:11 12:20:23 15° 291° (WNW) 12:22:34 145.990 - 145.960
DELFI C3 29 Jun 12:24:01 12:24:54 11° 294° (WNW) 12:25:47 145.870
LO-87 29 Jun 12:25:23 12:29:01 71° 102° (ESE) 12:32:38 145.935 - 145.965
POLYITAN 1 29 Jun 12:43:26 12:47:41 69° 259° (W) 12:51:58 437.675
BUGSAT 1 29 Jun 12:44:17 12:47:40 25° 70° (ENE) 12:51:04 437.445
PCSat 29 Jun 12:45:21 12:50:14 34° 304° (NW) 12:55:09 145.827
QB50P2 29 Jun 12:54:46 12:58:51 45° 261° (W) 13:02:57 145.880/145.840
SPROUT 29 Jun 13:03:53 13:07:20 23° 96° (E) 13:10:46 437.525
Gurwin Techsat 1B 29 Jun 13:05:40 13:07:35 12° 62° (ENE) 13:09:30 435.225
Oscar 19 29 Jun 13:14:34 13:18:37 24° 67° (ENE) 13:22:39 437.125/150
VELOX 1 29 Jun 13:15:27 13:19:18 28° 97° (E) 13:23:09 145.980
JUGNU 29 Jun 13:15:36 13:19:15 17° 177° (S) 13:22:56 437.505
EO-79 29 Jun 13:18:17 13:21:52 26° 264° (W) 13:25:28 145.935-145.965
ISS 29 Jun 13:21:33 13:23:14 13° 26° (NNE) 13:24:55 437.550
DUCHIFAT 1 29 Jun 13:26:59 13:30:32 26° 264° (W) 13:34:07 145.980
ESTCUBE 1 29 Jun 13:32:51 13:36:57 36° 288° (WNW) 13:41:03 437.505/2401.250
NANOSAT C BR1 29 Jun 13:38:48 13:41:38 17° 266° (W) 13:44:29 145.865
Tancredo 1 29 Jun 13:45:38 13:48:27 34° 37° (NE) 13:51:16 437.200
SO-50 29 Jun 14:01:35 14:06:09 81° 300° (WNW) 14:10:42 436.795
AO-7 29 Jun 14:13:55 14:18:43 17° 53° (NE) 14:23:32 .
BUGSAT 1 29 Jun 14:19:40 14:22:55 22° 265° (W) 14:26:12 437.445
SPROUT 29 Jun 14:39:37 14:43:08 25° 290° (WNW) 14:46:38 437.525
50 SAT 29 Jun 14:42:10 14:45:25 42° 285° (WNW) 14:48:40 437.505
